Year,Month,Day,Hour,Minute,Value (Times are PST for windspeed in km/hr)
2015,04,28,00,00,2.80
2015,04,28,00,01,2.10
2015,04,28,00,02,0.20
2015,04,28,00,03,0.00
2015,04,28,00,04,0.00
2015,04,28,00,05,0.20
2015,04,28,00,06,0.70
2015,04,28,00,07,0.00
2015,04,28,00,08,1.60
2015,04,28,00,09,3.40
2015,04,28,00,10,3.00
2015,04,28,00,11,1.80
2015,04,28,00,12,2.70
2015,04,28,00,13,2.70
2015,04,28,00,14,1.80
2015,04,28,00,15,0.40
2015,04,28,00,16,1.80
2015,04,28,00,17,0.80
2015,04,28,00,18,0.20
2015,04,28,00,19,2.20
2015,04,28,00,20,2.80
2015,04,28,00,21,1.90
2015,04,28,00,22,0.50
2015,04,28,00,23,0.00
2015,04,28,00,24,0.00
2015,04,28,00,25,0.00
2015,04,28,00,26,0.30
2015,04,28,00,27,0.90
2015,04,28,00,28,1.00
2015,04,28,00,29,0.10
2015,04,28,00,30,2.20
2015,04,28,00,31,2.60
2015,04,28,00,32,3.30
2015,04,28,00,33,3.10
2015,04,28,00,34,2.50
2015,04,28,00,35,1.40
2015,04,28,00,36,5.10
2015,04,28,00,37,4.50
2015,04,28,00,38,2.70
2015,04,28,00,39,0.60
2015,04,28,00,40,0.00
2015,04,28,00,41,0.10
2015,04,28,00,42,0.00
2015,04,28,00,43,1.20
2015,04,28,00,44,5.00
2015,04,28,00,45,3.70
2015,04,28,00,46,2.60
2015,04,28,00,47,2.60
2015,04,28,00,48,3.40
2015,04,28,00,49,5.10
2015,04,28,00,50,5.50
2015,04,28,00,51,7.10
2015,04,28,00,52,10.40
2015,04,28,00,53,8.30
2015,04,28,00,54,7.40
2015,04,28,00,55,3.10
2015,04,28,00,56,7.50
2015,04,28,00,57,10.00
2015,04,28,00,58,8.20
2015,04,28,00,59,9.00
2015,04,28,01,00,7.70
2015,04,28,01,01,8.40
2015,04,28,01,02,7.00
2015,04,28,01,03,5.60
2015,04,28,01,04,6.60
2015,04,28,01,05,6.70
2015,04,28,01,06,5.20
2015,04,28,01,07,3.10
2015,04,28,01,08,4.20
2015,04,28,01,09,2.50
2015,04,28,01,10,0.20
2015,04,28,01,11,0.20
2015,04,28,01,12,3.50
2015,04,28,01,13,1.20
2015,04,28,01,14,3.40
2015,04,28,01,15,4.20
2015,04,28,01,16,3.30
2015,04,28,01,17,2.30
2015,04,28,01,18,1.30
2015,04,28,01,19,0.20
2015,04,28,01,20,0.10
2015,04,28,01,21,0.10
2015,04,28,01,22,0.10
2015,04,28,01,23,0.00
2015,04,28,01,24,0.70
2015,04,28,01,25,1.70
2015,04,28,01,26,2.70
2015,04,28,01,27,3.50
2015,04,28,01,28,3.30
2015,04,28,01,29,2.20
2015,04,28,01,30,2.40
2015,04,28,01,31,3.10
2015,04,28,01,32,2.50
2015,04,28,01,33,2.30
2015,04,28,01,34,1.30
2015,04,28,01,35,1.50
2015,04,28,01,36,1.80
2015,04,28,01,37,1.10
2015,04,28,01,38,0.60
2015,04,28,01,39,0.00
2015,04,28,01,40,0.00
2015,04,28,01,41,0.40
2015,04,28,01,42,0.10
2015,04,28,01,43,0.10
2015,04,28,01,44,0.00
2015,04,28,01,45,0.00
2015,04,28,01,46,0.00
2015,04,28,01,47,0.50
2015,04,28,01,48,0.00
2015,04,28,01,49,0.60
2015,04,28,01,50,0.20
2015,04,28,01,51,0.30
2015,04,28,01,52,1.60
2015,04,28,01,53,2.10
2015,04,28,01,54,1.80
2015,04,28,01,55,4.10
2015,04,28,01,56,2.30
2015,04,28,01,57,3.40
2015,04,28,01,58,1.10
2015,04,28,01,59,0.60
2015,04,28,02,00,0.40
2015,04,28,02,01,0.20
2015,04,28,02,02,0.00
2015,04,28,02,03,0.80
2015,04,28,02,04,2.10
2015,04,28,02,05,1.30
2015,04,28,02,06,2.80
2015,04,28,02,07,1.10
2015,04,28,02,08,1.10
2015,04,28,02,09,5.00
2015,04,28,02,10,7.60
2015,04,28,02,11,6.90
2015,04,28,02,12,7.50
2015,04,28,02,13,9.00
2015,04,28,02,14,5.00
2015,04,28,02,15,9.10
2015,04,28,02,16,9.00
2015,04,28,02,17,4.60
2015,04,28,02,18,8.10
2015,04,28,02,19,6.40
2015,04,28,02,20,5.20
2015,04,28,02,21,5.30
2015,04,28,02,22,7.80
2015,04,28,02,23,4.20
2015,04,28,02,24,6.70
2015,04,28,02,25,9.20
2015,04,28,02,26,2.70
2015,04,28,02,27,3.40
2015,04,28,02,28,7.00
2015,04,28,02,29,3.40
2015,04,28,02,30,2.00
2015,04,28,02,31,1.00
2015,04,28,02,32,9.80
2015,04,28,02,33,13.00
2015,04,28,02,34,7.10
2015,04,28,02,35,12.60
2015,04,28,02,36,15.00
2015,04,28,02,37,14.10
2015,04,28,02,38,15.60
2015,04,28,02,39,9.80
2015,04,28,02,40,14.60
2015,04,28,02,41,14.10
2015,04,28,02,42,11.30
2015,04,28,02,43,14.60
2015,04,28,02,44,17.70
2015,04,28,02,45,17.70
2015,04,28,02,46,17.80
2015,04,28,02,47,13.00
2015,04,28,02,48,15.10
2015,04,28,02,49,18.30
2015,04,28,02,50,13.80
2015,04,28,02,51,16.30
2015,04,28,02,52,18.50
2015,04,28,02,53,17.40
2015,04,28,02,54,17.10
2015,04,28,02,55,20.80
2015,04,28,02,56,19.20
2015,04,28,02,57,19.80
2015,04,28,02,58,16.10
2015,04,28,02,59,19.70
2015,04,28,03,00,18.20
2015,04,28,03,01,23.40
2015,04,28,03,02,19.60
2015,04,28,03,03,16.50
2015,04,28,03,04,18.20
2015,04,28,03,05,19.00
2015,04,28,03,06,18.80
2015,04,28,03,07,21.60
2015,04,28,03,08,22.70
2015,04,28,03,09,22.60
2015,04,28,03,10,17.50
2015,04,28,03,11,23.00
2015,04,28,03,12,18.40
2015,04,28,03,13,14.70
2015,04,28,03,14,16.10
2015,04,28,03,15,21.20
2015,04,28,03,16,19.90
2015,04,28,03,17,15.70
2015,04,28,03,18,18.40
2015,04,28,03,19,17.40
2015,04,28,03,20,18.70
2015,04,28,03,21,23.70
2015,04,28,03,22,22.10
2015,04,28,03,23,20.70
2015,04,28,03,24,18.30
2015,04,28,03,25,22.10
2015,04,28,03,26,18.50
2015,04,28,03,27,14.90
2015,04,28,03,28,18.80
2015,04,28,03,29,21.50
2015,04,28,03,30,20.30
2015,04,28,03,31,17.60
2015,04,28,03,32,19.90
2015,04,28,03,33,17.90
2015,04,28,03,34,18.20
2015,04,28,03,35,18.90
2015,04,28,03,36,20.70
2015,04,28,03,37,20.10
2015,04,28,03,38,19.50
2015,04,28,03,39,18.00
2015,04,28,03,40,17.00
2015,04,28,03,41,17.20
2015,04,28,03,42,14.10
2015,04,28,03,43,18.80
2015,04,28,03,44,19.20
2015,04,28,03,45,15.90
2015,04,28,03,46,18.20
2015,04,28,03,47,19.10
2015,04,28,03,48,18.50
2015,04,28,03,49,21.00
2015,04,28,03,50,20.40
2015,04,28,03,51,19.20
2015,04,28,03,52,24.90
2015,04,28,03,53,19.60
2015,04,28,03,54,17.50
2015,04,28,03,55,21.10
2015,04,28,03,56,23.50
2015,04,28,03,57,17.90
2015,04,28,03,58,19.50
2015,04,28,03,59,18.90
2015,04,28,04,00,21.50
2015,04,28,04,01,16.60
2015,04,28,04,02,18.00
2015,04,28,04,03,19.60
2015,04,28,04,04,18.40
2015,04,28,04,05,20.80
2015,04,28,04,06,20.40
2015,04,28,04,07,17.00
2015,04,28,04,08,17.40
2015,04,28,04,09,20.00
2015,04,28,04,10,18.50
2015,04,28,04,11,27.80
2015,04,28,04,12,20.10
2015,04,28,04,13,18.50
2015,04,28,04,14,16.00
2015,04,28,04,15,19.30
2015,04,28,04,16,18.80
2015,04,28,04,17,20.70
2015,04,28,04,18,18.80
2015,04,28,04,19,22.90
2015,04,28,04,20,17.50
2015,04,28,04,21,21.30
2015,04,28,04,22,19.60
2015,04,28,04,23,16.70
2015,04,28,04,24,19.50
2015,04,28,04,25,13.60
2015,04,28,04,26,15.90
2015,04,28,04,27,19.50
2015,04,28,04,28,20.30
2015,04,28,04,29,21.20
2015,04,28,04,30,17.50
2015,04,28,04,31,20.50
2015,04,28,04,32,24.30
2015,04,28,04,33,17.30
2015,04,28,04,34,19.60
2015,04,28,04,35,14.00
2015,04,28,04,36,17.20
2015,04,28,04,37,24.50
2015,04,28,04,38,21.30
2015,04,28,04,39,19.20
2015,04,28,04,40,22.40
2015,04,28,04,41,20.20
2015,04,28,04,42,24.10
2015,04,28,04,43,21.90
2015,04,28,04,44,22.30
2015,04,28,04,45,24.20
2015,04,28,04,46,17.60
2015,04,28,04,47,19.80
2015,04,28,04,48,22.60
2015,04,28,04,49,25.10
2015,04,28,04,50,24.30
2015,04,28,04,51,18.30
2015,04,28,04,52,21.00
2015,04,28,04,53,24.50
2015,04,28,04,54,21.40
2015,04,28,04,55,23.60
2015,04,28,04,56,22.30
2015,04,28,04,57,19.60
2015,04,28,04,58,20.60
2015,04,28,04,59,23.80
2015,04,28,05,00,18.40
2015,04,28,05,01,14.20
2015,04,28,05,02,16.90
2015,04,28,05,03,17.30
2015,04,28,05,04,18.40
2015,04,28,05,05,20.30
2015,04,28,05,06,25.50
2015,04,28,05,07,21.50
2015,04,28,05,08,26.80
2015,04,28,05,09,20.90
2015,04,28,05,10,19.40
2015,04,28,05,11,17.40
2015,04,28,05,12,15.50
2015,04,28,05,13,16.70
2015,04,28,05,14,17.40
2015,04,28,05,15,16.70
2015,04,28,05,16,17.80
2015,04,28,05,17,16.40
2015,04,28,05,18,18.90
2015,04,28,05,19,15.90
2015,04,28,05,20,17.20
2015,04,28,05,21,18.90
2015,04,28,05,22,13.80
2015,04,28,05,23,17.10
2015,04,28,05,24,16.70
2015,04,28,05,25,17.10
2015,04,28,05,26,18.80
2015,04,28,05,27,15.90
2015,04,28,05,28,14.00
2015,04,28,05,29,13.40
2015,04,28,05,30,14.50
2015,04,28,05,31,15.60
2015,04,28,05,32,15.90
2015,04,28,05,33,13.00
2015,04,28,05,34,14.90
2015,04,28,05,35,14.90
2015,04,28,05,36,15.90
2015,04,28,05,37,18.80
2015,04,28,05,38,14.60
2015,04,28,05,39,13.00
2015,04,28,05,40,12.60
2015,04,28,05,41,12.80
2015,04,28,05,42,13.80
2015,04,28,05,43,15.00
2015,04,28,05,44,14.80
2015,04,28,05,45,15.90
2015,04,28,05,46,14.30
2015,04,28,05,47,14.10
2015,04,28,05,48,13.10
2015,04,28,05,49,14.80
2015,04,28,05,50,16.80
2015,04,28,05,51,13.80
2015,04,28,05,52,14.80
2015,04,28,05,53,16.20
2015,04,28,05,54,17.10
2015,04,28,05,55,13.30
2015,04,28,05,56,15.40
2015,04,28,05,57,15.30
2015,04,28,05,58,15.20
2015,04,28,05,59,15.40
2015,04,28,06,00,13.60
2015,04,28,06,01,16.50
2015,04,28,06,02,18.30
2015,04,28,06,03,13.40
2015,04,28,06,04,12.90
2015,04,28,06,05,14.40
2015,04,28,06,06,16.20
2015,04,28,06,07,16.10
2015,04,28,06,08,14.70
2015,04,28,06,09,12.60
2015,04,28,06,10,13.10
2015,04,28,06,11,15.70
2015,04,28,06,12,14.00
2015,04,28,06,13,17.00
2015,04,28,06,14,13.00
2015,04,28,06,15,10.90
2015,04,28,06,16,15.70
2015,04,28,06,17,15.40
2015,04,28,06,18,16.60
2015,04,28,06,19,15.70
2015,04,28,06,20,17.30
2015,04,28,06,21,13.40
2015,04,28,06,22,13.60
2015,04,28,06,23,14.60
2015,04,28,06,24,17.70
2015,04,28,06,25,16.40
2015,04,28,06,26,17.00
2015,04,28,06,27,17.10
2015,04,28,06,28,17.00
2015,04,28,06,29,18.20
2015,04,28,06,30,17.80
2015,04,28,06,31,11.30
2015,04,28,06,32,16.50
2015,04,28,06,33,17.20
2015,04,28,06,34,12.90
2015,04,28,06,35,13.90
2015,04,28,06,36,13.40
2015,04,28,06,37,16.30
2015,04,28,06,38,14.00
2015,04,28,06,39,15.20
2015,04,28,06,40,13.30
2015,04,28,06,41,16.50
2015,04,28,06,42,13.20
2015,04,28,06,43,13.90
2015,04,28,06,44,12.50
2015,04,28,06,45,12.60
2015,04,28,06,46,13.20
2015,04,28,06,47,8.10
2015,04,28,06,48,9.40
2015,04,28,06,49,8.90
2015,04,28,06,50,12.30
2015,04,28,06,51,11.40
2015,04,28,06,52,13.00
2015,04,28,06,53,11.70
2015,04,28,06,54,12.30
2015,04,28,06,55,12.50
2015,04,28,06,56,12.10
2015,04,28,06,57,10.50
2015,04,28,06,58,10.20
2015,04,28,06,59,15.60
2015,04,28,07,00,15.00
2015,04,28,07,01,11.90
2015,04,28,07,02,13.20
2015,04,28,07,03,12.60
2015,04,28,07,04,17.70
2015,04,28,07,05,12.20
2015,04,28,07,06,15.40
2015,04,28,07,07,16.80
2015,04,28,07,08,18.10
2015,04,28,07,09,17.40
2015,04,28,07,10,17.30
2015,04,28,07,11,22.00
2015,04,28,07,12,13.30
2015,04,28,07,13,11.80
2015,04,28,07,14,16.60
2015,04,28,07,15,18.80
2015,04,28,07,16,17.00
2015,04,28,07,17,16.60
2015,04,28,07,18,13.70
2015,04,28,07,19,12.10
2015,04,28,07,20,9.70
2015,04,28,07,21,17.50
2015,04,28,07,22,14.50
2015,04,28,07,23,12.00
2015,04,28,07,24,16.20
2015,04,28,07,25,19.80
2015,04,28,07,26,16.00
2015,04,28,07,27,19.80
2015,04,28,07,28,17.10
2015,04,28,07,29,18.50
2015,04,28,07,30,17.70
2015,04,28,07,31,17.10
2015,04,28,07,32,16.70
2015,04,28,07,33,22.50
2015,04,28,07,34,17.40
2015,04,28,07,35,15.40
2015,04,28,07,36,25.10
2015,04,28,07,37,19.60
2015,04,28,07,38,16.70
2015,04,28,07,39,20.00
2015,04,28,07,40,18.60
2015,04,28,07,41,14.60
2015,04,28,07,42,14.70
2015,04,28,07,43,19.90
2015,04,28,07,44,12.30
2015,04,28,07,45,15.60
2015,04,28,07,46,18.80
2015,04,28,07,47,13.00
2015,04,28,07,48,14.70
2015,04,28,07,49,18.90
2015,04,28,07,50,17.80
2015,04,28,07,51,18.90
2015,04,28,07,52,17.00
2015,04,28,07,53,17.40
2015,04,28,07,54,13.40
2015,04,28,07,55,18.60
2015,04,28,07,56,21.70
2015,04,28,07,57,23.80
2015,04,28,07,58,17.50
2015,04,28,07,59,17.90
2015,04,28,08,00,15.30
2015,04,28,08,01,23.90
2015,04,28,08,02,22.40
2015,04,28,08,03,22.50
2015,04,28,08,04,30.70
2015,04,28,08,05,22.60
2015,04,28,08,06,21.80
2015,04,28,08,07,23.30
2015,04,28,08,08,20.80
2015,04,28,08,09,20.40
2015,04,28,08,10,18.70
2015,04,28,08,11,21.10
2015,04,28,08,12,22.50
2015,04,28,08,13,20.80
2015,04,28,08,14,18.60
2015,04,28,08,15,22.80
2015,04,28,08,16,19.80
2015,04,28,08,17,19.10
2015,04,28,08,18,17.60
2015,04,28,08,19,18.20
2015,04,28,08,20,21.90
2015,04,28,08,21,17.20
2015,04,28,08,22,24.00
2015,04,28,08,23,19.70
2015,04,28,08,24,22.40
2015,04,28,08,25,20.40
2015,04,28,08,26,18.90
2015,04,28,08,27,20.80
2015,04,28,08,28,16.90
2015,04,28,08,29,17.00
2015,04,28,08,30,14.10
2015,04,28,08,31,10.30
2015,04,28,08,32,11.80
2015,04,28,08,33,13.60
2015,04,28,08,34,16.40
2015,04,28,08,35,17.50
2015,04,28,08,36,12.80
2015,04,28,08,37,13.20
2015,04,28,08,38,12.40
2015,04,28,08,39,19.20
2015,04,28,08,40,16.20
2015,04,28,08,41,14.80
2015,04,28,08,42,13.00
2015,04,28,08,43,14.00
2015,04,28,08,44,17.00
2015,04,28,08,45,16.40
2015,04,28,08,46,16.80
2015,04,28,08,47,21.80
2015,04,28,08,48,15.30
2015,04,28,08,49,14.20
2015,04,28,08,50,17.60
2015,04,28,08,51,18.70
2015,04,28,08,52,14.50
2015,04,28,08,53,15.70
2015,04,28,08,54,14.10
2015,04,28,08,55,13.70
2015,04,28,08,56,18.10
2015,04,28,08,57,20.10
2015,04,28,08,58,21.10
2015,04,28,08,59,20.30
2015,04,28,09,00,16.70
2015,04,28,09,01,14.50
2015,04,28,09,02,17.70
2015,04,28,09,03,19.70
2015,04,28,09,04,18.20
2015,04,28,09,05,22.50
2015,04,28,09,06,21.60
2015,04,28,09,07,25.10
2015,04,28,09,08,18.20
2015,04,28,09,09,18.80
2015,04,28,09,10,16.20
2015,04,28,09,11,20.70
2015,04,28,09,12,20.80
2015,04,28,09,13,16.20
2015,04,28,09,14,18.00
2015,04,28,09,15,20.40
2015,04,28,09,16,18.10
2015,04,28,09,17,21.30
2015,04,28,09,18,19.20
2015,04,28,09,19,19.10
2015,04,28,09,20,22.50
2015,04,28,09,21,22.10
2015,04,28,09,22,24.70
2015,04,28,09,23,17.50
2015,04,28,09,24,17.50
2015,04,28,09,25,17.20
2015,04,28,09,26,16.30
2015,04,28,09,27,22.50
2015,04,28,09,28,22.80
2015,04,28,09,29,21.10
2015,04,28,09,30,16.50
2015,04,28,09,31,21.80
2015,04,28,09,32,16.50
2015,04,28,09,33,14.40
2015,04,28,09,34,12.50
2015,04,28,09,35,21.50
2015,04,28,09,36,17.60
2015,04,28,09,37,18.80
2015,04,28,09,38,21.20
2015,04,28,09,39,18.20
2015,04,28,09,40,17.10
2015,04,28,09,41,18.30
2015,04,28,09,42,17.50
2015,04,28,09,43,17.60
2015,04,28,09,44,18.80
2015,04,28,09,45,20.20
2015,04,28,09,46,15.90
2015,04,28,09,47,23.90
2015,04,28,09,48,23.30
2015,04,28,09,49,20.10
2015,04,28,09,50,19.80
2015,04,28,09,51,15.00
2015,04,28,09,52,15.20
2015,04,28,09,53,17.00
2015,04,28,09,54,15.90
2015,04,28,09,55,20.10
2015,04,28,09,56,21.60
2015,04,28,09,57,15.20
2015,04,28,09,58,20.30
2015,04,28,09,59,21.20
2015,04,28,10,00,17.80
2015,04,28,10,01,15.50
2015,04,28,10,02,15.00
2015,04,28,10,03,12.70
2015,04,28,10,04,13.20
2015,04,28,10,05,23.40
2015,04,28,10,06,17.00
2015,04,28,10,07,13.60
2015,04,28,10,08,16.60
2015,04,28,10,09,15.30
2015,04,28,10,10,15.70
2015,04,28,10,11,17.30
2015,04,28,10,12,16.60
2015,04,28,10,13,18.90
2015,04,28,10,14,17.20
2015,04,28,10,15,13.00
2015,04,28,10,16,16.10
2015,04,28,10,17,19.60
2015,04,28,10,18,14.30
2015,04,28,10,19,14.60
2015,04,28,10,20,12.70
2015,04,28,10,21,14.40
2015,04,28,10,22,15.80
2015,04,28,10,23,17.20
2015,04,28,10,24,23.60
2015,04,28,10,25,18.50
2015,04,28,10,26,18.30
2015,04,28,10,27,16.20
2015,04,28,10,28,12.10
2015,04,28,10,29,15.30
2015,04,28,10,30,14.40
2015,04,28,10,31,13.80
2015,04,28,10,32,14.30
2015,04,28,10,33,12.40
2015,04,28,10,34,16.20
2015,04,28,10,35,8.70
2015,04,28,10,36,13.60
2015,04,28,10,37,10.10
2015,04,28,10,45,14.20
2015,04,28,10,46,14.10
2015,04,28,10,47,16.80
2015,04,28,10,48,14.60
2015,04,28,10,49,11.60
2015,04,28,10,50,7.70
2015,04,28,10,51,11.30
2015,04,28,10,52,9.70
2015,04,28,10,53,11.90
2015,04,28,10,54,15.60
2015,04,28,10,55,15.20
2015,04,28,10,56,8.40
2015,04,28,10,57,9.70
2015,04,28,10,58,11.10
2015,04,28,10,59,13.50
2015,04,28,11,00,13.50
2015,04,28,11,01,13.60
2015,04,28,11,02,13.50
2015,04,28,11,03,15.40
2015,04,28,11,04,11.10
2015,04,28,11,05,15.50
2015,04,28,11,06,14.20
2015,04,28,11,07,14.60
2015,04,28,11,08,10.80
2015,04,28,11,09,11.30
2015,04,28,11,10,17.20
2015,04,28,11,11,14.60
2015,04,28,11,12,11.40
2015,04,28,11,13,7.70
2015,04,28,11,14,9.60
2015,04,28,11,15,17.30
2015,04,28,11,16,13.80
2015,04,28,11,17,14.40
2015,04,28,11,18,8.30
2015,04,28,11,19,7.40
2015,04,28,11,20,14.30
2015,04,28,11,21,11.80
2015,04,28,11,22,12.60
2015,04,28,11,23,8.90
2015,04,28,11,24,8.00
2015,04,28,11,25,13.00
2015,04,28,11,26,14.80
2015,04,28,11,27,15.20
2015,04,28,11,28,10.10
2015,04,28,11,29,12.70
2015,04,28,11,30,10.50
2015,04,28,11,31,13.40
2015,04,28,11,32,11.40
2015,04,28,11,33,8.80
2015,04,28,11,34,14.30
2015,04,28,11,35,8.90
2015,04,28,11,36,16.00
2015,04,28,11,37,9.30
2015,04,28,11,38,13.50
2015,04,28,11,39,8.40
2015,04,28,11,40,9.30
2015,04,28,11,41,10.80
2015,04,28,11,42,4.80
2015,04,28,11,43,12.00
2015,04,28,11,44,10.40
2015,04,28,11,45,8.00
2015,04,28,11,46,9.40
2015,04,28,11,47,8.50
2015,04,28,11,48,6.80
2015,04,28,11,49,8.60
2015,04,28,11,50,11.50
2015,04,28,11,51,9.00
2015,04,28,11,52,7.40
2015,04,28,11,53,7.90
2015,04,28,11,54,4.20
2015,04,28,11,55,3.00
2015,04,28,11,56,3.60
2015,04,28,11,57,6.30
2015,04,28,11,58,5.90
2015,04,28,11,59,8.30
2015,04,28,12,00,7.80
2015,04,28,12,01,5.20
2015,04,28,12,02,5.60
2015,04,28,12,03,11.30
2015,04,28,12,04,13.10
2015,04,28,12,05,6.60
2015,04,28,12,06,8.70
2015,04,28,12,07,7.70
2015,04,28,12,08,7.20
2015,04,28,12,09,4.60
2015,04,28,12,10,5.90
2015,04,28,12,11,6.10
2015,04,28,12,12,2.10
2015,04,28,12,13,3.80
2015,04,28,12,14,2.20
2015,04,28,12,15,2.20
2015,04,28,12,16,1.30
2015,04,28,12,17,0.80
2015,04,28,12,18,3.90
2015,04,28,12,19,4.10
2015,04,28,12,20,4.50
2015,04,28,12,21,2.30
2015,04,28,12,22,1.20
2015,04,28,12,23,3.30
2015,04,28,12,24,4.10
2015,04,28,12,25,5.60
2015,04,28,12,26,11.50
2015,04,28,12,27,8.70
2015,04,28,12,28,8.50
2015,04,28,12,29,11.20
2015,04,28,12,30,11.40
2015,04,28,12,31,8.50
2015,04,28,12,32,11.40
2015,04,28,12,33,12.70
2015,04,28,12,34,9.10
2015,04,28,12,35,7.70
2015,04,28,12,36,8.40
2015,04,28,12,37,9.70
2015,04,28,12,38,11.70
2015,04,28,12,39,6.90
2015,04,28,12,40,6.50
2015,04,28,12,41,8.50
2015,04,28,12,42,10.10
2015,04,28,12,43,10.20
2015,04,28,12,44,7.00
2015,04,28,12,45,7.70
2015,04,28,12,46,4.60
2015,04,28,12,47,8.20
2015,04,28,12,48,8.80
2015,04,28,12,49,4.90
2015,04,28,12,50,5.70
2015,04,28,12,51,8.70
2015,04,28,12,52,8.10
2015,04,28,12,53,7.20
2015,04,28,12,54,7.60
2015,04,28,12,55,5.80
2015,04,28,12,56,2.70
2015,04,28,12,57,4.20
2015,04,28,12,58,5.80
2015,04,28,12,59,6.40
2015,04,28,13,00,7.00
2015,04,28,13,01,2.70
2015,04,28,13,02,4.30
2015,04,28,13,03,4.60
2015,04,28,13,04,4.80
2015,04,28,13,05,2.90
2015,04,28,13,06,6.00
2015,04,28,13,07,5.10
2015,04,28,13,08,4.10
2015,04,28,13,09,4.90
2015,04,28,13,10,9.20
2015,04,28,13,11,4.40
2015,04,28,13,12,6.60
2015,04,28,13,13,5.40
2015,04,28,13,14,5.60
2015,04,28,13,15,4.30
2015,04,28,13,16,4.90
2015,04,28,13,17,5.50
2015,04,28,13,18,5.50
2015,04,28,13,19,6.80
2015,04,28,13,20,4.80
2015,04,28,13,21,6.20
2015,04,28,13,22,3.50
2015,04,28,13,23,5.20
2015,04,28,13,24,4.60
2015,04,28,13,25,5.80
2015,04,28,13,26,1.70
2015,04,28,13,27,5.50
2015,04,28,13,28,5.90
2015,04,28,13,29,7.70
2015,04,28,13,30,1.60
2015,04,28,13,31,7.40
2015,04,28,13,32,6.90
2015,04,28,13,33,3.70
2015,04,28,13,34,4.40
2015,04,28,13,35,4.40
2015,04,28,13,36,2.30
2015,04,28,13,37,2.50
2015,04,28,13,38,4.70
2015,04,28,13,39,4.50
2015,04,28,13,40,4.70
2015,04,28,13,41,5.40
2015,04,28,13,42,9.90
2015,04,28,13,43,10.20
2015,04,28,13,44,8.00
2015,04,28,13,45,7.70
2015,04,28,13,46,8.90
2015,04,28,13,47,5.60
2015,04,28,13,48,4.00
2015,04,28,13,49,8.90
2015,04,28,13,50,9.80
2015,04,28,13,51,3.80
2015,04,28,13,52,10.10
2015,04,28,13,53,6.00
2015,04,28,13,54,5.20
2015,04,28,13,55,12.80
2015,04,28,13,56,11.90
2015,04,28,13,57,10.10
2015,04,28,13,58,7.80
2015,04,28,13,59,9.80
2015,04,28,14,00,9.30
2015,04,28,14,01,9.70
2015,04,28,14,02,5.70
2015,04,28,14,03,10.00
2015,04,28,14,04,6.60
2015,04,28,14,05,8.10
2015,04,28,14,06,9.90
2015,04,28,14,07,7.80
2015,04,28,14,08,5.40
2015,04,28,14,09,9.30
2015,04,28,14,10,7.90
2015,04,28,14,11,10.10
2015,04,28,14,12,6.20
2015,04,28,14,13,6.60
2015,04,28,14,14,3.30
2015,04,28,14,15,3.80
2015,04,28,14,16,5.80
2015,04,28,14,17,10.20
2015,04,28,14,18,7.80
2015,04,28,14,19,8.10
2015,04,28,14,20,8.10
2015,04,28,14,21,11.70
2015,04,28,14,22,11.60
2015,04,28,14,23,6.20
2015,04,28,14,24,8.50
2015,04,28,14,25,6.60
2015,04,28,14,26,10.30
2015,04,28,14,27,5.20
2015,04,28,14,28,4.00
2015,04,28,14,29,6.90
2015,04,28,14,30,9.70
2015,04,28,14,31,9.40
2015,04,28,14,32,7.80
2015,04,28,14,33,7.60
2015,04,28,14,34,13.30
2015,04,28,14,35,14.10
2015,04,28,14,36,13.40
2015,04,28,14,37,4.50
2015,04,28,14,38,7.30
2015,04,28,14,39,13.80
2015,04,28,14,40,14.80
2015,04,28,14,41,15.30
2015,04,28,14,42,10.60
2015,04,28,14,43,14.40
2015,04,28,14,44,11.80
2015,04,28,14,45,12.50
2015,04,28,14,46,10.10
2015,04,28,14,47,12.00
2015,04,28,14,48,8.50
2015,04,28,14,49,14.80
2015,04,28,14,50,5.10
2015,04,28,14,51,9.60
2015,04,28,14,52,8.10
2015,04,28,14,53,11.70
2015,04,28,14,54,15.60
2015,04,28,14,55,12.00
2015,04,28,14,56,4.40
2015,04,28,14,57,9.40
2015,04,28,14,58,10.00
2015,04,28,14,59,9.60
2015,04,28,15,00,8.90
2015,04,28,15,01,12.20
2015,04,28,15,02,11.60
2015,04,28,15,03,9.70
2015,04,28,15,04,9.70
2015,04,28,15,05,11.40
2015,04,28,15,06,9.60
2015,04,28,15,07,10.20
2015,04,28,15,08,13.90
2015,04,28,15,09,10.00
2015,04,28,15,10,11.00
2015,04,28,15,11,11.60
2015,04,28,15,12,12.10
2015,04,28,15,13,4.70
2015,04,28,15,14,10.80
2015,04,28,15,15,9.20
2015,04,28,15,16,7.60
2015,04,28,15,17,9.40
2015,04,28,15,18,9.80
2015,04,28,15,19,6.80
2015,04,28,15,20,4.30
2015,04,28,15,21,11.10
2015,04,28,15,22,10.20
2015,04,28,15,23,6.80
2015,04,28,15,24,8.00
2015,04,28,15,25,8.50
2015,04,28,15,26,8.10
2015,04,28,15,27,9.90
2015,04,28,15,28,11.50
2015,04,28,15,29,5.10
2015,04,28,15,30,7.10
2015,04,28,15,31,3.20
2015,04,28,15,32,7.00
2015,04,28,15,33,7.80
2015,04,28,15,34,9.00
2015,04,28,15,35,3.50
2015,04,28,15,36,5.80
2015,04,28,15,37,3.30
2015,04,28,15,38,1.00
2015,04,28,15,39,8.00
2015,04,28,15,40,11.00
2015,04,28,15,41,9.10
2015,04,28,15,42,5.80
2015,04,28,15,43,9.30
2015,04,28,15,44,10.00
2015,04,28,15,45,9.00
2015,04,28,15,46,9.30
2015,04,28,15,47,8.40
2015,04,28,15,48,8.80
2015,04,28,15,49,3.90
2015,04,28,15,50,6.50
2015,04,28,15,51,9.00
2015,04,28,15,52,6.10
2015,04,28,15,53,11.60
2015,04,28,15,54,9.30
2015,04,28,15,55,11.60
2015,04,28,15,56,6.60
2015,04,28,15,57,10.10
2015,04,28,15,58,10.30
2015,04,28,15,59,10.00
2015,04,28,16,00,10.10
2015,04,28,16,01,10.00
2015,04,28,16,02,11.60
2015,04,28,16,03,10.80
2015,04,28,16,04,12.40
2015,04,28,16,05,13.60
2015,04,28,16,06,5.70
2015,04,28,16,07,12.80
2015,04,28,16,08,9.40
2015,04,28,16,09,5.80
2015,04,28,16,10,5.60
2015,04,28,16,11,11.10
2015,04,28,16,12,6.90
2015,04,28,16,13,7.40
2015,04,28,16,14,10.70
2015,04,28,16,15,9.40
2015,04,28,16,16,6.10
2015,04,28,16,17,4.20
2015,04,28,16,18,3.50
2015,04,28,16,19,7.00
2015,04,28,16,20,9.30
2015,04,28,16,21,9.00
2015,04,28,16,22,4.80
2015,04,28,16,23,7.40
2015,04,28,16,24,6.40
2015,04,28,16,25,8.10
2015,04,28,16,26,8.50
2015,04,28,16,27,9.20
2015,04,28,16,28,6.80
2015,04,28,16,29,10.00
2015,04,28,16,30,8.90
2015,04,28,16,31,7.40
2015,04,28,16,32,3.90
2015,04,28,16,33,6.70
2015,04,28,16,34,7.00
2015,04,28,16,35,8.60
2015,04,28,16,36,10.90
2015,04,28,16,37,7.10
2015,04,28,16,38,12.60
2015,04,28,16,39,7.10
2015,04,28,16,40,5.10
2015,04,28,16,41,5.40
2015,04,28,16,42,6.40
2015,04,28,16,43,1.00
2015,04,28,16,44,1.60
2015,04,28,16,45,4.70
2015,04,28,16,46,5.10
2015,04,28,16,47,11.00
2015,04,28,16,48,12.30
2015,04,28,16,49,6.60
2015,04,28,16,50,11.30
2015,04,28,16,51,9.00
2015,04,28,16,52,5.50
2015,04,28,16,53,8.60
2015,04,28,16,54,7.70
2015,04,28,16,55,7.00
2015,04,28,16,56,7.00
2015,04,28,16,57,10.50
2015,04,28,16,58,6.00
2015,04,28,16,59,7.40
2015,04,28,17,00,3.10
2015,04,28,17,01,7.60
2015,04,28,17,02,8.00
2015,04,28,17,03,12.10
2015,04,28,17,04,11.00
2015,04,28,17,05,10.70
2015,04,28,17,06,9.80
2015,04,28,17,07,6.10
2015,04,28,17,08,8.90
2015,04,28,17,09,7.60
2015,04,28,17,10,12.50
2015,04,28,17,11,8.90
2015,04,28,17,12,5.90
2015,04,28,17,13,5.90
2015,04,28,17,14,11.30
2015,04,28,17,15,9.70
2015,04,28,17,16,11.00
2015,04,28,17,17,9.10
2015,04,28,17,18,9.70
2015,04,28,17,19,8.80
2015,04,28,17,20,14.00
2015,04,28,17,21,10.60
2015,04,28,17,22,6.40
2015,04,28,17,23,6.40
2015,04,28,17,24,6.20
2015,04,28,17,25,9.70
2015,04,28,17,26,9.40
2015,04,28,17,27,9.80
2015,04,28,17,28,9.70
2015,04,28,17,29,9.30
2015,04,28,17,30,9.50
2015,04,28,17,31,9.90
2015,04,28,17,32,10.80
2015,04,28,17,33,12.30
2015,04,28,17,34,10.00
2015,04,28,17,35,8.50
2015,04,28,17,36,14.30
2015,04,28,17,37,10.10
2015,04,28,17,38,10.60
2015,04,28,17,39,7.20
2015,04,28,17,40,12.60
2015,04,28,17,41,10.90
2015,04,28,17,42,9.90
2015,04,28,17,43,7.00
2015,04,28,17,44,10.70
2015,04,28,17,45,13.30